Location: Anglesey
(53.1800°N, 4.2200°W)
Time: 18:00:20
(UTC+01:00)

X-37B - Visible Passes

Search period start: 22 June 2021 00:00
Search period end: 02 July 2021 00:00
Orbit: 386 x 389 km, 45.0° (Epoch: 10 June)

Date Brightness Start Highest point End Pass type
(mag) Time Alt. Az. Time Alt. Az. Time Alt. Az.
22 Jun 2.6 02:43:03 13° SSE 02:43:03 13° SSE 02:43:49 10° SSE visible
23 Jun 2.5 23:08:00 10° S 23:09:31 13° SSE 23:10:09 12° SSE visible
24 Jun 2.1 23:45:01 10° SW 23:47:16 18° S 23:47:29 18° SSE visible
25 Jun 2.3 22:47:06 10° SSW 22:49:09 16° SSE 22:51:10 10° SE visible
26 Jun 2.4 00:22:47 10° SW 00:24:10 16° SSW 00:24:10 16° SSW visible
26 Jun 2.1 23:24:36 10° SW 23:26:57 19° S 23:28:17 15° SSE visible
28 Jun 2.4 00:02:38 10° SW 00:04:33 16° SSW 00:04:33 16° SSW visible
28 Jun 2.2 23:04:19 10° SW 23:06:37 18° S 23:08:29 12° SE visible
29 Jun 2.6 23:42:42 10° SW 23:44:23 14° SSW 23:44:39 14° SSW visible
30 Jun 2.5 22:44:10 10° SW 22:46:17 16° SSW 22:48:23 10° SSE visible
01 Jul 3.0 23:23:28 10° SSW 23:24:00 10° SSW 23:24:31 10° SSW visible
